Wetbulb
41.27 41.28 41.57 42.34 43.46 44.32 44.91 45.46 45.76 46.71 47.05 46.69 46.26 47.09 47.65 47.01 45.55 42.00 39.78 38.17 37.90 32.53 32.65 33.65 33.90 31.19 31.43 33.10 30.56 31.50 32.84 33.00 31.45 30.06 28.80 26.14 25.72 25.75 25.06 28.98 26.63 26.29 25.79 25.87 27.23 24.07 20.72 37.51 30.47 29.63 35.66 32.51 29.46 30.98
41.46 40.80 41.61 41.80 42.37 43.19 43.64 43.84 44.62 45.24 45.79 46.31 47.38 47.50 47.85 46.67 45.99 42.46 39.88 38.36 38.69 33.85 32.54 36.21 35.95 36.26 34.91 32.52 32.45 31.66 31.30 31.39 34.83 31.82 28.83 27.18 24.34 24.40 27.71 23.72 29.68 25.79 30.80 28.63 29.91 29.33 31.71 33.27 33.98 28.23 26.29 27.19 27.82 27.02
41.31 40.61 41.06 41.84 42.07 42.47 42.72 43.14 44.01 44.64 45.89 46.20 45.93 47.08 47.18 47.45 45.98 42.14 39.24 37.10 36.28 32.59 32.83 32.66 31.89 35.52 36.86 36.32 36.44 32.84 32.33 33.74 34.24 34.26 31.02 29.65 26.51 28.14 24.09 24.17 29.35 29.96 33.08 30.74 31.18 33.83 31.49 29.04 25.36 23.42 24.17 25.26 23.64 23.82
40.88 40.78 40.42 41.27 41.67 41.85 42.11 42.29 42.93 44.49 45.33 46.51 46.30 46.06 47.29 47.73 45.04 41.24 39.14 35.90 35.97 31.75 30.23 30.03 34.41 32.89 35.71 34.90 34.19 34.80 34.28 34.95 34.04 33.77 32.32 30.29 27.29 30.96 29.30 29.46 29.23 32.54 31.21 30.19 29.49 30.63 25.60 27.66 26.35 24.92 21.35 21.29 20.20 20.64
40.49 40.68 40.43 40.22 41.09 41.36 41.51 41.58 42.16 44.13 45.04 46.27 45.76 45.87 46.59 46.82 42.42 38.10 36.83 36.17 36.84 35.60 30.39 29.23 29.40 31.30 32.67 31.98 31.86 32.84 32.51 33.30 32.95 31.42 29.90 27.70 30.35 28.62 26.84 27.17 27.41 31.17 30.68 28.97 29.22 32.24 32.30 32.97 26.24 22.72 20.35 19.65 19.88 17.28
39.95 40.49 40.53 39.78 40.19 40.74 40.78 40.68 41.05 43.06 44.13 44.54 45.22 46.57 46.51 45.05 42.20 40.02 32.30 36.73 37.55 36.94 32.38 27.77 27.44 26.19 26.71 27.23 30.39 30.95 31.61 31.62 31.92 31.36 31.27 31.02 28.18 30.62 26.65 26.61 31.96 27.79 22.42 23.37 31.51 22.06 20.21 19.79 20.48 21.48 19.76 18.61 17.70 17.07
39.39 39.95 40.31 39.88 39.24 40.02 40.32 40.15 40.03 40.94 43.64 43.46 43.43 44.09 43.40 41.46 37.01 32.99 32.11 34.06 38.54 38.01 32.36 27.82 24.79 24.09 22.59 24.37 29.31 30.41 32.08 31.15 30.91 30.33 27.96 27.74 26.52 28.92 28.37 25.90 26.72 21.46 19.79 17.77 18.41 19.50 18.31 18.17 17.87 17.66 17.09 16.49 15.90 14.90
39.27 39.34 39.99 39.79 38.65 39.07 39.71 39.53 40.18 39.45 42.73 41.85 40.15 40.61 41.05 40.64 38.07 31.86 30.55 32.47 36.45 32.74 29.88 24.46 24.24 22.30 19.42 23.54 25.10 28.31 28.70 28.81 26.76 26.98 25.49 24.59 24.37 24.76 22.58 26.07 18.15 16.71 15.40 14.39 13.72 14.07 15.99 16.89 15.83 14.35 13.32 12.36 10.58 9.61
39.19 39.03 39.25 39.52 38.21 38.19 38.78 38.70 40.20 40.43 42.68 39.96 37.63 34.00 28.77 25.65 27.94 28.40 33.05 29.48 25.95 30.02 27.80 21.09 22.59 22.28 17.29 19.12 22.30 25.47 27.44 23.52 25.51 22.86 21.72 20.64 23.31 20.65 25.42 20.78 14.47 13.28 14.51 12.66 9.24 10.60 12.95 12.35 10.90 10.49 11.03 11.13 9.88 8.13
38.80 38.99 38.83 38.91 37.16 37.62 37.83 37.98 37.41 38.10 39.19 37.28 29.29 23.39 18.74 22.94 30.50 30.73 22.21 21.99 19.79 13.96 14.72 19.02 6.49 18.58 15.50 16.67 18.64 20.70 22.41 21.79 20.04 17.72 16.05 16.72 20.02 18.29 12.94 12.25 13.93 14.72 10.44 9.49 7.72 6.69 6.82 7.37 8.12 7.41 8.43 9.20 9.43 7.12
38.54 38.84 38.83 38.27 36.47 37.73 37.41 37.38 36.01 35.04 33.09 22.03 16.97 18.02 20.82 24.46 22.45 14.15 13.82 14.91 9.79 14.02 8.40 6.78 8.93 15.04 14.19 17.26 18.40 16.13 16.76 13.53 16.91 14.13 14.68 17.06 14.81 17.98 7.69 7.18 7.19 11.94 11.15 9.51 4.58 6.30 10.42 10.79 7.74 5.43 4.50 5.99 6.21 4.98
38.68 39.31 38.33 37.81 36.15 37.67 37.56 36.98 34.41 21.80 17.38 19.79 19.51 16.15 15.50 13.05 12.05 12.52 5.44 2.25 6.41 13.69 4.22 9.80 9.15 9.18 10.14 11.82 14.25 12.11 14.26 11.07 12.79 2.69 11.51 13.40 18.37 7.32 4.00 2.69 1.90 3.57 3.35 0.47 -3.58 3.65 2.69 7.10 6.91 5.46 3.67 1.79 1.48 0.11
38.57 38.10 38.01 37.08 35.11 37.64 37.34 36.36 32.22 29.59 23.13 15.71 13.38 13.27 15.20 8.83 7.91 9.04 5.19 8.12 5.77 -0.19 1.58 2.98 8.03 7.16 7.84 10.19 7.47 9.63 10.03 10.28 1.33 8.54 12.79 16.05 11.64 4.31 0.51 -2.78 -6.40 -9.87 -8.10 -6.39 -7.01 -6.49 -3.73 -3.92 -3.24 -2.35 -3.88 -5.19 -4.53 -5.56
38.04 37.96 37.84 34.91 35.86 36.62 35.43 34.37 28.76 23.07 14.68 12.58 10.93 10.23 12.79 6.62 7.29 8.76 10.73 11.91 5.06 0.87 -1.82 2.73 2.56 7.25 1.92 6.50 1.51 8.11 1.01 0.30 6.16 4.60 10.73 15.61 10.12 5.26 -0.31 -2.58 -4.41 -5.01 -6.62 -5.05 -4.25 -5.49 -5.75 -5.14 -6.08 -6.77 -4.55 -5.76 -6.49 -7.63
37.91 38.12 35.49 33.58 36.71 36.65 32.80 27.88 22.43 9.62 10.74 12.43 9.70 10.07 3.70 3.50 -8.65 -13.10 -21.78 -13.04 -7.18 -3.39 0.86 1.86 1.95 6.20 0.53 1.75 -1.87 0.32 1.41 2.87 6.35 10.33 13.97 12.86 4.98 2.66 -0.07 -1.50 -2.30 -2.89 -5.57 -5.49 -7.16 -7.24 -7.45 -8.13 -7.22 -8.82 -10.04 -7.21 -6.08 -8.80
38.52 33.70 27.92 33.90 37.04 33.41 27.37 19.05 8.35 6.42 3.25 7.39 2.43 6.06 -12.36 -1.87 0.69 -11.18 -14.01 -5.90 -7.69 -0.56 -2.10 1.76 -1.16 1.21 2.16 0.99 1.57 3.79 3.46 3.86 10.71 8.82 10.73 2.39 -0.64 -1.35 -1.43 -2.03 -2.43 -2.69 -3.85 -6.03 -7.88 -7.57 -7.23 -9.76 -7.79 -4.47 -12.76 -11.46 -10.95 -8.30
39.30 28.90 33.08 34.94 34.73 26.09 22.93 9.94 9.93 3.09 9.87 7.50 9.91 -11.62 -2.42 -0.86 6.59 -0.49 -5.07 -2.36 -2.38 2.18 6.58 1.86 3.59 9.64 -3.66 -2.52 -1.53 1.16 6.23 12.10 8.78 6.90 1.42 -0.87 1.93 0.30 -3.81 -4.63 -5.97 -6.99 -7.02 -7.26 -9.37 -9.51 -7.48 -10.11 -13.39 -10.47 -7.74 -8.10 -10.90 -9.49
33.86 30.99 35.37 35.23 24.06 17.97 6.88 6.72 7.74 4.15 8.54 3.54 7.28 0.88 -8.29 -10.24 -5.83 -7.65 -9.70 -6.07 -0.54 0.23 -0.46 5.68 2.73 -1.33 3.53 5.65 7.42 9.89 6.59 3.91 -2.09 0.34 2.02 -1.01 -3.75 -3.63 -0.67 0.27 -3.44 -4.50 -5.13 -8.09 -8.92 -9.68 -11.99 -12.70 -9.15 -4.91 -4.71 -6.15 -11.25 -13.67
34.94 32.58 35.41 31.60 22.59 13.64 11.16 5.97 6.43 8.98 3.66 -3.96 -5.91 -6.76 -8.96 -10.00 -12.00 -12.06 -11.68 -8.64 -7.57 -6.56 -1.79 -1.08 1.32 3.90 7.71 9.36 12.86 10.91 2.84 3.14 9.41 4.18 1.21 -4.27 -4.06 -4.37 -3.42 -2.56 -3.15 -4.85 -5.42 -7.15 -9.48 -6.71 -5.98 -6.66 -2.61 -2.34 -3.99 -10.11 -6.37 -6.29
37.86 35.41 31.00 28.70 23.45 17.60 11.15 6.91 2.70 4.27 2.82 -2.95 -7.18 -5.29 -5.85 -7.34 -10.55 -11.94 -9.80 -6.88 -4.01 -3.71 -2.18 -0.88 4.02 11.44 12.60 13.51 9.93 9.85 6.93 4.66 5.58 6.25 6.13 -0.56 -5.11 -6.45 -2.95 -2.00 -1.49 -2.44 -4.81 -9.03 -8.46 -9.64 -8.46 -9.32 -10.79 -9.57 -8.14 -8.12 -6.94 -5.74
30.21 28.03 26.20 18.83 13.24 13.81 8.92 4.09 2.34 -0.32 -5.43 -4.31 -10.08 -6.81 -7.34 -9.93 -9.35 -8.63 -6.50 -4.66 -3.19 -1.11 2.26 5.95 7.17 10.61 0.99 -2.62 -4.98 -3.58 1.87 3.97 8.50 12.39 13.86 6.55 -3.34 -2.39 -4.13 -4.15 -3.47 -4.34 -4.87 -6.06 -5.95 -7.61 -7.78 -3.41 -1.11 -7.71 -10.52 -10.36 -9.39 -7.15
25.75 26.82 17.13 18.03 16.04 9.72 5.48 0.29 2.64 -1.02 -0.85 -6.81 -7.72 -8.65 -10.05 -10.91 -10.44 -8.77 -6.15 -5.44 -2.81 3.43 5.20 6.20 7.80 6.46 -0.35 -1.07 -1.62 -4.76 -2.65 -0.83 -2.28 -2.22 -2.01 -0.43 -3.14 -3.80 -4.36 -3.95 -4.95 -3.64 -3.59 -3.10 -3.34 -2.65 -5.05 -5.15 -7.27 -10.06 -10.45 -8.71 -12.63 -11.04
24.58 21.50 14.93 13.85 12.63 8.19 1.31 -1.05 0.06 -1.15 1.24 -1.73 -8.55 -7.57 -8.41 -12.64 -12.23 -7.56 -7.74 -4.28 -1.39 1.81 1.16 1.46 -1.89 -4.26 -1.37 -6.24 -5.44 -4.59 -4.05 -1.22 0.40 0.73 -0.00 0.35 -0.34 -0.72 -0.68 -2.68 -2.51 -1.35 -3.14 -4.12 -5.16 -4.11 -5.24 -9.89 -11.08 -10.14 -11.17 -12.40 -12.08 -12.07
23.40 17.15 15.32 13.84 12.68 2.06 -4.28 -2.23 0.47 -0.82 -2.12 -2.92 -2.28 -2.63 -6.99 -10.78 -12.12 -12.04 -8.03 -4.91 -1.39 -4.00 -6.45 -6.54 -3.58 -2.53 -2.58 -2.59 0.50 1.02 -1.62 -2.43 -0.11 -1.23 -1.61 -0.48 0.95 -0.40 -3.25 -3.26 -5.70 -4.34 -3.91 -7.67 -7.86 -9.25 -11.15 -9.77 -12.82 -11.61 -12.60 -13.00 -14.10 -12.41
18.25 15.44 12.44 8.34 -3.60 -1.71 -1.96 -2.87 -3.07 -3.52 -1.99 -2.71 -1.71 -1.52 -6.99 -12.32 -11.56 -15.01 -10.44 -3.69 -3.86 -9.45 -8.91 -9.21 -5.92 -2.55 1.83 3.42 2.06 0.13 -3.65 -1.38 0.20 1.66 -0.69 -2.03 -3.32 -6.19 -6.27 -9.25 -10.11 -10.53 -11.86 -9.33 -11.07 -12.06 -12.57 -14.21 -13.15 -12.64 -13.51 -13.91 -12.61 -13.55
14.35 12.61 8.77 8.96 0.25 0.51 2.43 0.39 -4.55 -4.81 -4.89 -3.26 -1.58 -9.22 -10.03 -7.02 -8.97 -2.08 -5.34 -8.41 -11.57 -10.14 -7.72 -8.04 -5.53 -1.85 1.50 2.79 3.93 1.69 -1.01 -4.84 -2.46 0.47 -3.97 -6.09 -4.74 -1.85 -2.61 -3.25 -3.14 -2.82 -15.03 -11.75 -10.81 -11.41 -12.01 -12.23 -11.35 -11.91 -11.87 -13.51 -15.29 -13.41
12.51 10.14 0.75 -1.80 2.17 1.38 -1.16 -2.52 -1.55 -1.23 -1.23 0.46 -2.44 -7.98 -5.12 -1.82 -5.05 -2.35 -9.67 -12.93 -10.24 -7.60 -8.58 -3.81 0.86 3.32 3.96 0.57 -4.10 -8.02 -9.73 -8.31 -8.31 -8.39 -12.33 -12.70 -11.86 -10.73 -7.67 -5.96 -6.06 -8.20 -15.98 -15.15 -12.86 -11.87 -11.01 -12.04 -11.64 -10.37 -9.99 -12.13 -13.02 -12.39
9.01 3.92 5.65 -0.11 -1.27 1.13 2.16 0.80 0.51 0.87 3.74 1.19 -1.78 -5.22 -0.55 0.39 0.26 -2.56 -2.95 -5.73 -11.08 -7.39 -6.88 -7.36 -8.35 -6.63 -6.06 -8.30 -9.12 -9.94 -12.29 -14.14 -14.25 -14.44 -15.19 -14.44 -17.68 -17.44 -18.91 -17.16 -17.05 -5.15 -14.95 -15.23 -13.08 -13.49 -12.83 -10.34 -9.82 -9.93 -11.49 -11.68 -10.09 -12.38
-0.38 -0.40 1.64 -1.75 -0.09 0.74 4.18 5.95 6.68 4.33 -0.07 0.42 0.75 -2.07 -1.10 -1.32 -0.05 0.23 -4.09 -5.30 -6.97 -3.97 -2.96 -4.45 -7.91 -11.65 -13.07 -14.99 -16.11 -17.40 -15.91 -12.66 -8.34 -11.13 -11.01 -8.19 -9.44 -9.81 -18.71 -18.66 -17.00 -15.39 -14.34 -13.50 -4.97 -9.48 -12.49 -12.04 -10.90 -11.83 -12.94 -13.02 -14.86 -20.10
-2.29 -0.98 2.30 3.23 4.29 4.26 0.03 -3.83 -3.58 -6.48 -5.29 -4.78 -4.43 -2.18 -1.97 -0.82 -2.35 -3.80 -4.68 -5.71 -4.66 -3.84 -5.58 -7.09 -8.78 -9.39 -8.36 -9.27 -11.80 -12.89 -18.42 -18.71 -16.94 -9.66 -9.28 -14.03 -14.24 -19.16 -23.97 -22.22 -19.37 -19.36 -17.79 -16.05 -11.79 -9.90 -1.99 -11.21 -12.90 -20.35 -19.29 -20.45 -18.84 -19.17
-1.45 -0.08 1.29 1.54 -2.02 -8.01 -9.14 -7.66 -7.44 -6.37 -6.09 -6.02 -6.98 -5.26 -3.41 -5.97 -4.61 -6.12 -5.64 -4.49 -4.18 -5.60 -5.27 -4.62 -9.55 -15.87 -13.26 -13.23 -13.44 -11.85 -10.88 -16.13 -20.29 -24.52 -27.66 -26.24 -25.76 -26.11 -24.81 -21.91 -20.17 -22.17 -22.26 -18.76 -18.57 -19.19 -17.97 -19.10 -21.98 -24.44 -23.99 -21.79 -20.25 -19.54
-5.22 -3.67 -3.77 -4.98 -8.74 -11.32 -9.19 -8.11 -7.57 -7.82 -7.76 -6.60 -6.68 -9.06 -6.14 -6.51 -3.87 -5.39 -10.43 -11.47 -11.35 -10.67 -9.98 -14.26 -14.35 -11.98 -14.83 -17.63 -19.33 -21.57 -17.54 -25.15 -23.76 -19.76 -22.48 -20.77 -22.78 -24.16 -25.22 -25.11 -28.18 -28.20 -22.96 -21.06 -22.00 -21.12 -22.28 -21.80 -20.82 -19.92 -19.23 -19.26 -19.09 -19.24
-9.68 -9.49 -6.63 -7.44 -10.85 -10.28 -10.78 -8.12 -7.52 -7.12 -9.11 -9.10 -10.54 -14.86 -15.89 -13.66 -5.88 -8.30 -16.29 -19.93 -17.79 -16.68 -16.77 -17.49 -20.67 -25.90 -24.64 -22.92 -23.15 -24.18 -20.74 -26.46 -24.73 -10.50 -10.27 -10.45 -14.13 -18.22 -28.49 -28.32 -23.85 -20.95 -20.34 -19.62 -18.96 -20.19 -22.71 -25.40 -22.21 -21.99 -21.19 -20.57 -19.51 -18.45
MSLP
1014.90 1014.28 1013.73 1013.20 1012.58 1012.00 1011.62 1011.19 1011.04 1010.91 1010.55 1010.33 1010.32 1010.39 1010.40 1010.48 1010.55 1011.01 1011.15 1011.21 1010.98 1011.41 1011.77 1011.64 1011.45 1011.35 1011.69 1011.82 1011.60 1011.89 1012.62 1012.81 1012.70 1012.67 1012.88 1013.13 1013.21 1013.01 1012.85 1011.71 1011.73 1011.89 1012.15 1011.95 1012.06 1011.56 1011.17 1009.94 1011.88 1012.08 1011.05 1010.91 1011.22 1011.26
1015.29 1014.78 1014.08 1013.57 1013.15 1012.65 1012.22 1011.84 1011.48 1011.17 1010.93 1010.88 1010.66 1010.54 1010.50 1010.43 1010.30 1010.18 1010.51 1010.70 1010.87 1011.21 1012.33 1012.42 1012.09 1011.88 1011.61 1011.59 1012.06 1012.68 1012.15 1011.85 1011.78 1012.30 1012.69 1012.77 1012.94 1013.03 1011.65 1011.26 1011.12 1010.84 1009.42 1009.38 1009.87 1009.49 1009.67 1010.08 1010.23 1010.86 1011.43 1011.88 1012.49 1012.72
1015.66 1015.21 1014.52 1013.92 1013.48 1013.08 1012.63 1012.13 1011.76 1011.42 1011.03 1010.79 1010.60 1010.45 1010.39 1010.34 1010.31 1010.40 1010.87 1011.05 1010.98 1011.77 1012.20 1012.19 1012.23 1012.29 1012.33 1012.55 1012.63 1012.57 1012.61 1012.26 1012.08 1012.14 1012.44 1012.66 1012.41 1011.65 1011.21 1010.41 1009.66 1009.77 1009.52 1009.41 1009.68 1009.55 1009.83 1010.42 1011.24 1011.65 1012.24 1012.26 1013.01 1013.45
1015.91 1015.45 1015.00 1014.29 1013.69 1013.22 1012.81 1012.38 1011.93 1011.51 1011.07 1010.40 1010.21 1010.26 1010.34 1010.45 1010.76 1010.76 1011.22 1011.53 1011.50 1012.12 1012.44 1012.44 1012.50 1012.62 1012.71 1012.76 1012.83 1013.06 1013.14 1012.80 1012.67 1012.62 1012.47 1012.38 1012.08 1010.98 1010.38 1009.91 1009.72 1009.25 1010.06 1009.78 1009.62 1009.71 1010.55 1010.69 1011.23 1012.18 1013.23 1013.49 1014.12 1014.34
1016.07 1015.55 1015.16 1014.77 1014.09 1013.52 1012.98 1012.49 1012.03 1011.50 1011.06 1010.46 1009.96 1010.03 1010.10 1010.29 1010.77 1011.19 1011.93 1012.34 1012.18 1012.45 1012.74 1013.33 1013.52 1013.46 1013.48 1013.32 1013.16 1013.35 1013.59 1013.27 1012.89 1012.75 1012.42 1011.97 1011.52 1011.65 1011.39 1010.97 1009.65 1009.13 1008.98 1009.83 1009.25 1009.48 1010.33 1010.52 1011.24 1012.47 1013.62 1014.16 1015.05 1015.17
1016.22 1015.62 1015.13 1014.84 1014.38 1013.81 1013.26 1012.70 1012.21 1011.65 1011.20 1010.81 1010.50 1009.99 1010.11 1010.75 1011.09 1011.61 1012.63 1012.74 1012.54 1012.39 1012.72 1013.44 1013.93 1014.04 1014.24 1014.27 1013.97 1013.66 1013.48 1013.37 1013.02 1012.45 1011.94 1011.56 1011.41 1011.48 1011.08 1009.86 1008.67 1009.61 1010.16 1010.52 1010.74 1011.57 1012.15 1012.70 1013.37 1014.04 1014.68 1015.58 1016.65 1015.87
1016.19 1015.67 1015.09 1014.70 1014.34 1013.85 1013.30 1012.78 1012.26 1011.91 1011.43 1011.10 1010.92 1010.77 1010.85 1011.04 1011.53 1012.40 1013.16 1013.18 1012.61 1012.59 1012.72 1013.32 1013.76 1014.27 1014.45 1014.35 1013.76 1013.45 1013.23 1012.89 1012.81 1012.42 1012.12 1011.85 1011.92 1011.71 1010.42 1008.90 1009.50 1010.34 1011.34 1012.31 1012.78 1013.19 1013.77 1013.96 1014.20 1015.13 1015.64 1016.59 1017.53 1017.68
1016.10 1015.60 1015.02 1014.58 1014.31 1013.72 1013.18 1012.75 1012.18 1011.88 1011.64 1011.66 1011.54 1011.44 1011.42 1011.55 1012.07 1012.74 1013.37 1013.01 1012.50 1012.73 1013.15 1013.73 1013.95 1014.74 1014.94 1014.41 1013.84 1013.44 1012.90 1012.91 1012.89 1012.61 1012.63 1012.30 1012.26 1011.91 1010.35 1009.09 1010.03 1011.43 1012.67 1013.64 1014.14 1014.45 1014.57 1014.85 1015.53 1016.20 1017.08 1017.56 1017.91 1018.79
1016.02 1015.56 1015.08 1014.52 1014.30 1013.81 1013.27 1012.78 1012.21 1011.76 1011.59 1011.90 1011.99 1012.05 1012.33 1012.74 1013.19 1013.41 1013.14 1013.33 1013.41 1013.87 1013.95 1014.76 1015.14 1015.22 1015.49 1014.88 1014.22 1013.68 1013.03 1012.97 1013.16 1012.97 1013.08 1013.38 1011.87 1011.11 1009.54 1010.05 1011.18 1012.51 1013.45 1014.20 1015.42 1015.80 1015.91 1016.10 1016.79 1017.40 1017.83 1018.27 1018.88 1020.00
1015.92 1015.48 1015.02 1014.63 1014.43 1013.91 1013.34 1012.89 1012.53 1012.22 1011.92 1011.96 1012.13 1012.65 1013.39 1014.05 1013.81 1013.42 1013.63 1013.76 1013.99 1015.21 1015.50 1015.64 1016.70 1016.20 1016.07 1015.47 1014.81 1014.16 1013.49 1013.29 1013.44 1013.85 1014.09 1013.30 1011.33 1010.10 1010.86 1011.63 1012.42 1013.36 1014.66 1015.40 1016.10 1016.71 1017.05 1017.26 1017.42 1017.65 1018.07 1018.65 1019.35 1020.54
1015.64 1015.29 1014.94 1014.58 1014.43 1013.93 1013.49 1013.05 1012.62 1012.22 1012.16 1012.84 1013.70 1014.23 1014.41 1014.18 1013.96 1014.27 1014.95 1015.68 1016.49 1016.69 1016.78 1017.20 1017.18 1016.78 1016.75 1016.36 1015.55 1015.29 1014.83 1014.77 1014.61 1014.92 1014.74 1013.06 1011.66 1010.93 1012.20 1013.29 1014.42 1014.88 1015.56 1016.13 1016.47 1016.50 1016.49 1016.50 1017.23 1018.07 1018.82 1019.28 1020.07 1020.93
1015.22 1014.86 1014.66 1014.46 1014.30 1013.89 1013.55 1013.22 1013.00 1012.87 1013.29 1013.42 1013.88 1014.72 1014.99 1015.12 1015.47 1016.08 1017.08 1018.44 1018.50 1018.14 1018.35 1018.27 1018.29 1017.98 1017.73 1017.31 1016.42 1016.39 1015.86 1015.75 1015.65 1015.86 1015.21 1013.10 1010.89 1012.07 1013.56 1014.87 1015.90 1016.53 1017.04 1017.50 1017.99 1017.76 1017.77 1017.58 1017.94 1018.67 1019.55 1020.40 1021.11 1021.90
1014.86 1014.68 1014.41 1014.28 1014.15 1013.69 1013.37 1013.30 1013.52 1013.69 1013.90 1014.19 1014.27 1015.39 1015.76 1016.86 1017.55 1017.89 1018.51 1018.92 1019.34 1018.63 1018.77 1019.06 1019.14 1018.77 1018.67 1018.08 1017.60 1017.03 1016.87 1016.68 1016.49 1015.65 1013.83 1011.59 1011.51 1013.04 1014.47 1016.03 1017.31 1018.35 1018.82 1019.00 1019.21 1019.22 1019.08 1019.30 1019.57 1020.07 1020.90 1021.57 1022.28 1023.11
1014.57 1014.34 1014.12 1014.09 1013.96 1013.56 1013.30 1013.34 1013.78 1014.09 1014.46 1015.26 1015.96 1016.76 1017.51 1017.98 1017.97 1017.46 1017.98 1018.01 1018.17 1018.45 1019.00 1018.95 1019.23 1019.19 1019.22 1018.55 1018.36 1017.55 1018.06 1017.48 1016.19 1015.03 1012.29 1010.92 1011.42 1012.94 1015.03 1016.51 1017.69 1018.66 1019.15 1019.48 1019.73 1020.05 1020.30 1020.46 1020.79 1021.11 1021.65 1022.39 1022.96 1023.82
1014.03 1013.81 1013.84 1013.76 1013.65 1013.39 1013.42 1013.63 1014.05 1014.84 1015.46 1016.27 1016.77 1017.27 1017.69 1016.65 1017.79 1018.61 1019.33 1019.68 1019.61 1019.48 1019.26 1019.27 1019.13 1018.79 1018.66 1018.64 1018.60 1018.20 1017.67 1016.15 1014.70 1012.63 1011.34 1011.33 1012.27 1013.49 1015.12 1016.57 1017.53 1018.41 1019.23 1019.93 1020.54 1021.02 1021.35 1021.57 1021.88 1022.29 1022.72 1023.04 1023.45 1024.06
1013.41 1013.55 1013.56 1013.43 1013.23 1013.37 1013.72 1014.31 1014.77 1015.46 1016.53 1016.62 1016.91 1017.14 1018.30 1018.79 1018.79 1019.79 1020.08 1019.92 1019.97 1019.48 1019.47 1018.85 1018.74 1018.51 1017.71 1017.46 1017.53 1016.45 1015.96 1014.20 1012.30 1011.87 1011.76 1012.59 1013.48 1014.67 1015.58 1016.52 1017.48 1018.09 1018.84 1019.63 1020.36 1020.86 1021.49 1022.27 1022.63 1022.78 1023.42 1023.59 1023.90 1024.19
1012.69 1013.08 1012.71 1012.89 1013.01 1013.58 1013.91 1014.63 1015.31 1015.65 1015.95 1016.41 1016.33 1016.77 1017.52 1018.09 1018.41 1019.08 1019.61 1019.70 1019.92 1019.54 1019.00 1018.56 1018.11 1016.97 1017.44 1016.57 1015.93 1014.84 1013.01 1011.64 1011.56 1012.00 1012.71 1013.66 1014.03 1014.74 1015.47 1016.40 1017.35 1018.16 1019.01 1019.74 1020.42 1020.97 1021.42 1021.95 1022.76 1023.17 1023.50 1023.55 1023.87 1024.32
1012.40 1012.29 1012.26 1012.53 1013.07 1013.74 1014.57 1015.07 1015.55 1016.04 1016.29 1016.41 1017.24 1017.82 1018.67 1019.26 1019.81 1020.24 1020.44 1020.37 1020.00 1019.49 1018.62 1017.63 1016.38 1016.11 1014.96 1014.13 1012.86 1011.51 1011.43 1011.65 1012.20 1012.82 1013.22 1013.99 1014.45 1014.94 1015.50 1015.89 1016.83 1017.51 1018.26 1019.08 1019.82 1020.55 1021.25 1021.75 1022.16 1022.39 1022.75 1023.13 1023.83 1024.30
1011.56 1011.84 1011.76 1012.21 1012.80 1013.83 1015.02 1015.94 1016.17 1016.20 1016.70 1017.58 1018.25 1018.96 1019.51 1020.10 1020.69 1021.09 1020.85 1020.80 1020.45 1019.83 1018.48 1017.31 1015.81 1013.80 1011.98 1010.95 1010.50 1010.62 1011.46 1011.67 1012.19 1012.90 1013.61 1014.38 1014.93 1015.43 1015.82 1016.32 1016.96 1017.68 1018.37 1019.03 1019.79 1020.07 1020.50 1020.72 1020.86 1021.55 1022.15 1023.09 1023.20 1023.27
1010.75 1011.17 1011.78 1012.40 1012.88 1013.96 1015.26 1016.09 1016.51 1016.56 1017.45 1018.23 1018.80 1019.31 1019.82 1020.39 1020.86 1021.05 1020.90 1020.62 1020.18 1019.53 1018.34 1016.10 1013.06 1010.68 1010.21 1009.93 1010.02 1010.46 1010.79 1011.24 1012.01 1013.15 1013.83 1014.53 1015.23 1015.74 1016.00 1016.39 1016.82 1017.52 1018.35 1019.03 1019.56 1019.84 1020.40 1020.94 1021.32 1021.59 1021.98 1022.32 1022.54 1022.45
1010.77 1011.25 1011.86 1012.50 1013.57 1014.10 1015.19 1015.99 1016.65 1017.25 1017.81 1018.43 1019.28 1019.57 1020.02 1020.60 1020.77 1020.76 1020.44 1020.16 1019.69 1017.84 1015.25 1012.31 1010.99 1010.29 1010.61 1011.21 1011.67 1011.48 1011.42 1011.62 1011.74 1011.99 1012.62 1013.72 1014.88 1015.37 1016.04 1016.53 1016.94 1017.47 1018.00 1018.58 1018.96 1019.45 1019.77 1019.53 1019.71 1020.72 1021.46 1021.77 1021.91 1022.06
1010.26 1011.06 1012.06 1012.43 1013.18 1014.54 1015.37 1016.62 1016.86 1017.52 1017.86 1018.52 1019.15 1019.43 1019.91 1020.44 1020.34 1020.12 1019.88 1019.41 1017.44 1014.20 1012.65 1011.68 1011.13 1011.05 1011.57 1012.11 1012.26 1012.49 1012.29 1012.33 1012.63 1012.89 1013.14 1013.45 1014.59 1015.30 1015.69 1016.12 1016.82 1016.89 1017.39 1017.64 1018.06 1018.14 1018.49 1018.91 1019.60 1020.26 1020.86 1021.08 1021.61 1021.90
1010.60 1011.09 1011.87 1012.74 1013.59 1014.57 1016.08 1016.94 1016.92 1017.12 1017.35 1017.80 1018.49 1018.83 1019.34 1019.81 1019.95 1020.01 1019.25 1017.31 1014.70 1012.77 1012.44 1012.22 1012.25 1012.32 1012.15 1012.70 1012.84 1012.99 1013.13 1012.95 1013.00 1013.22 1013.50 1013.73 1014.12 1014.56 1015.02 1015.53 1016.00 1016.34 1016.79 1017.10 1017.52 1017.72 1018.13 1018.76 1019.36 1019.88 1020.34 1020.88 1021.21 1021.48
1010.17 1010.84 1011.57 1011.96 1012.58 1014.46 1015.88 1016.12 1016.23 1016.36 1016.63 1016.90 1017.31 1017.65 1018.44 1018.97 1019.44 1019.37 1017.91 1015.45 1013.39 1013.05 1012.99 1012.78 1012.70 1012.64 1012.76 1012.77 1012.69 1012.81 1013.22 1013.49 1013.60 1013.82 1013.86 1014.08 1014.35 1014.72 1015.06 1015.34 1015.83 1016.22 1016.60 1017.00 1017.23 1017.73 1018.36 1018.65 1019.07 1019.53 1019.98 1020.41 1020.76 1020.83
1009.99 1010.53 1011.12 1011.99 1013.33 1014.21 1014.73 1015.09 1015.28 1015.58 1015.18 1015.46 1016.15 1016.56 1017.58 1018.38 1018.47 1018.02 1016.33 1014.14 1013.70 1013.74 1013.49 1013.27 1013.09 1012.93 1012.79 1012.52 1012.69 1012.90 1013.50 1013.71 1013.91 1013.94 1014.15 1014.44 1014.74 1015.07 1015.38 1015.71 1016.26 1016.57 1016.97 1017.22 1017.52 1017.73 1018.03 1018.52 1018.87 1019.20 1019.58 1019.89 1020.03 1020.26
1009.15 1009.50 1010.41 1010.66 1012.08 1012.72 1012.72 1013.33 1013.90 1013.87 1014.02 1014.44 1014.98 1016.00 1016.79 1017.08 1016.98 1015.47 1014.24 1014.06 1013.97 1014.18 1013.96 1013.70 1013.31 1012.93 1012.85 1012.92 1013.14 1013.47 1013.77 1014.20 1014.37 1014.56 1014.95 1015.05 1015.13 1015.26 1015.67 1016.14 1016.34 1016.28 1016.99 1017.04 1017.33 1017.60 1017.87 1018.14 1018.36 1018.69 1019.01 1019.47 1019.84 1019.99
1008.46 1009.05 1010.35 1011.10 1011.09 1011.48 1012.14 1012.45 1012.56 1012.79 1012.99 1013.15 1013.97 1015.15 1015.51 1015.52 1014.65 1013.38 1013.38 1013.87 1014.33 1014.31 1014.13 1013.77 1013.53 1013.10 1013.00 1013.46 1014.05 1014.54 1014.72 1014.96 1015.39 1015.71 1015.83 1015.82 1015.99 1016.18 1016.38 1016.54 1016.56 1016.74 1016.85 1017.08 1017.23 1017.35 1017.56 1017.85 1018.07 1018.35 1018.66 1019.04 1019.22 1019.41
1008.36 1009.08 1009.98 1010.76 1011.19 1011.16 1011.43 1011.80 1011.96 1011.89 1011.99 1012.40 1013.22 1013.72 1013.47 1012.94 1012.83 1012.90 1013.38 1014.00 1014.43 1014.44 1014.38 1014.38 1014.33 1014.17 1014.14 1014.53 1014.94 1015.23 1015.57 1015.84 1016.08 1016.23 1016.40 1016.54 1016.74 1016.84 1016.96 1017.00 1017.03 1016.75 1016.82 1016.90 1017.06 1017.30 1017.38 1017.47 1017.78 1018.15 1018.50 1018.72 1018.74 1018.83
1009.45 1009.61 1009.91 1010.73 1011.15 1011.32 1011.31 1011.40 1011.42 1011.66 1011.94 1012.19 1012.49 1012.44 1012.27 1012.09 1012.41 1012.95 1013.62 1013.96 1014.31 1014.36 1014.50 1014.66 1014.94 1015.09 1015.28 1015.54 1015.74 1015.89 1016.02 1016.15 1016.30 1016.57 1016.84 1016.96 1017.22 1017.39 1017.36 1017.29 1017.14 1017.04 1016.96 1016.88 1016.79 1016.95 1017.24 1017.49 1017.74 1018.02 1018.32 1018.55 1018.78 1018.93
1010.05 1010.23 1010.30 1010.47 1010.97 1011.32 1011.84 1012.29 1012.58 1012.91 1012.94 1013.04 1013.03 1012.77 1012.73 1012.65 1013.01 1013.45 1013.82 1014.18 1014.41 1014.54 1014.76 1014.97 1015.23 1015.49 1015.65 1015.85 1016.21 1016.41 1016.56 1016.71 1016.78 1016.89 1017.04 1017.32 1017.65 1017.72 1017.63 1017.52 1017.41 1017.32 1017.25 1017.21 1017.27 1017.27 1017.24 1017.76 1018.09 1018.53 1018.74 1018.93 1018.96 1019.00
1010.74 1010.71 1010.78 1010.93 1011.70 1012.51 1013.02 1013.35 1013.60 1013.62 1013.58 1013.69 1013.82 1013.81 1013.64 1013.62 1013.46 1013.85 1014.17 1014.38 1014.56 1014.82 1015.10 1015.42 1015.78 1016.09 1016.15 1016.17 1016.28 1016.63 1016.86 1017.01 1017.02 1017.22 1017.41 1017.61 1017.70 1017.77 1017.65 1017.50 1017.50 1017.55 1017.58 1017.71 1017.93 1017.93 1018.10 1018.34 1018.51 1018.70 1018.90 1018.88 1018.63 1018.55
1011.37 1011.37 1011.48 1011.87 1012.68 1013.38 1013.67 1013.66 1013.61 1013.64 1013.87 1014.04 1014.26 1014.40 1014.35 1014.52 1014.46 1014.41 1014.84 1015.10 1015.30 1015.52 1015.65 1015.97 1016.16 1016.30 1016.28 1016.37 1016.53 1016.71 1016.61 1016.91 1016.97 1016.89 1017.16 1017.39 1017.51 1017.40 1017.39 1017.53 1017.68 1017.74 1017.83 1018.09 1018.38 1018.28 1018.31 1018.42 1018.57 1018.57 1018.47 1018.21 1017.91 1017.68
1012.14 1012.09 1012.01 1012.16 1012.82 1013.35 1013.51 1013.37 1013.35 1013.52 1013.79 1014.11 1014.63 1015.25 1015.53 1015.70 1015.36 1015.07 1015.58 1015.77 1016.16 1016.28 1016.36 1016.49 1016.61 1016.64 1016.54 1016.59 1016.71 1016.68 1016.70 1016.71 1016.68 1016.83 1016.90 1017.04 1017.18 1017.33 1017.54 1017.74 1017.85 1017.89 1017.98 1018.12 1018.23 1018.33 1018.38 1018.41 1018.32 1018.18 1017.93 1017.58 1017.17 1016.76
Wind_Speed
24 22 21 20 21 20 18 17 16 13 5 2 1 5 9 6 6 7 2 1 2 3 3 5 5 1 4 4 5 3 4 2 1 6 6 6 6 9 5 8 10 14 9 8 8 7 13 12 6 12 13 2 2 5
24 21 21 20 19 18 16 13 12 12 10 8 9 10 8 2 5 3 2 1 2 5 0 1 2 5 5 3 3 2 2 4 4 3 3 2 4 3 6 7 5 9 14 12 9 6 2 9 7 7 6 4 2 4
22 20 20 20 19 18 17 14 11 10 11 7 6 5 5 2 4 3 1 2 3 3 2 1 3 4 3 3 4 1 1 1 2 2 4 2 5 6 6 9 9 7 6 8 9 10 9 10 5 6 8 7 4 3
20 19 18 19 19 19 17 15 12 11 13 12 7 6 3 5 6 4 2 2 3 2 2 2 3 3 4 4 2 2 4 2 3 1 2 3 4 5 5 5 7 6 9 8 6 8 4 12 13 5 7 6 9 9
20 19 18 18 18 18 18 17 13 12 10 16 1 5 4 8 11 8 4 3 2 1 1 2 3 1 3 5 6 4 6 3 1 2 4 5 2 1 0 2 6 8 10 7 9 3 6 8 3 13 12 10 10 13
19 19 19 18 18 18 17 16 13 10 10 12 15 10 4 14 12 2 2 2 3 2 2 3 2 2 1 3 7 9 7 4 3 3 3 3 2 5 5 14 14 4 3 2 5 3 3 4 7 6 9 11 8 11
18 19 18 18 18 19 18 17 11 8 4 8 10 10 9 10 4 3 0 2 8 2 2 2 2 1 2 2 2 2 4 3 2 2 4 2 2 4 5 14 4 8 5 4 5 7 3 6 4 7 13 12 11 13
17 18 19 18 18 19 19 19 13 5 2 9 11 13 14 15 12 3 5 8 3 2 1 2 2 2 4 2 3 1 3 3 2 2 1 2 1 3 8 5 4 8 8 6 4 0 2 8 9 9 11 11 12 10
16 17 18 18 18 18 18 18 17 6 5 6 2 6 3 6 2 1 3 3 4 2 1 1 2 1 4 1 2 2 2 3 1 3 2 2 4 9 7 6 9 10 6 10 7 5 6 6 8 10 11 10 12 11
14 15 16 17 17 17 17 16 14 11 5 6 4 4 3 1 7 4 5 2 4 4 3 3 2 2 3 2 1 1 1 1 3 1 3 4 6 1 3 0 4 10 10 12 8 4 5 7 12 12 10 8 8 10
13 14 14 13 14 17 17 17 16 9 6 4 3 1 2 8 2 4 1 2 3 2 1 1 1 0 1 1 1 2 0 1 3 2 3 2 6 2 5 5 3 5 9 6 3 3 6 7 13 11 8 8 9 10
13 12 12 10 11 16 16 16 16 4 2 4 4 2 2 5 3 3 2 2 2 4 2 2 1 1 1 2 0 1 1 0 5 2 2 5 4 3 6 5 4 4 6 5 1 3 2 5 8 8 7 7 6 6
11 11 12 7 9 15 14 13 9 6 3 3 5 4 3 2 3 5 5 4 4 5 5 3 2 1 0 0 2 1 3 4 0 1 5 7 1 4 5 5 4 2 2 4 3 2 3 5 5 4 7 4 7 6
11 12 9 6 7 12 12 9 4 4 4 3 4 4 4 4 7 7 6 4 2 3 5 3 3 1 1 2 1 3 1 1 1 3 8 3 6 6 7 4 6 6 5 4 4 4 4 6 5 4 6 7 8 8
10 12 6 5 10 11 8 5 7 4 3 3 4 6 8 2 1 0 1 2 3 2 3 3 3 1 1 3 1 3 2 5 6 7 4 2 2 7 9 8 7 8 6 5 4 3 4 5 5 6 4 5 5 6
11 5 4 7 10 9 4 5 4 3 3 3 2 1 1 1 2 3 3 3 5 4 2 2 3 3 3 3 4 8 5 8 5 5 2 1 4 4 6 7 6 5 6 5 5 5 6 5 4 5 5 4 4 5
9 4 8 5 7 6 4 3 2 3 4 4 4 1 1 1 1 1 3 2 6 4 4 3 6 7 4 2 4 6 8 4 4 3 2 3 4 7 7 7 7 7 7 6 5 5 4 5 5 4 6 7 6 5
4 5 9 3 4 3 3 3 3 3 7 2 3 2 1 0 0 1 1 3 5 3 3 4 4 4 7 7 5 5 6 2 2 2 2 3 3 4 6 9 8 8 8 7 6 6 5 7 7 6 4 4 5 4
6 6 10 8 5 4 1 2 1 4 1 1 0 1 1 0 1 1 1 1 1 1 1 2 3 5 6 5 5 2 3 4 3 4 2 2 3 4 5 4 5 6 7 7 8 7 7 9 6 5 5 5 6 6
1 12 11 7 3 2 3 2 0 1 2 1 1 1 0 1 1 1 2 2 1 0 2 5 8 4 4 3 4 3 2 4 4 3 2 3 3 5 7 6 6 6 5 4 4 4 4 4 5 5 5 7 6 7
7 8 10 5 3 3 1 1 1 0 2 1 1 0 0 0 1 2 3 3 2 5 6 7 4 2 1 1 1 1 2 4 4 2 2 5 5 5 4 3 5 5 5 6 7 7 7 7 5 7 7 7 6 4
2 13 3 1 3 2 2 1 1 2 0 1 1 1 1 1 2 2 3 3 6 6 5 2 1 1 1 2 1 2 0 4 3 3 5 7 5 4 4 5 6 6 7 6 6 7 7 5 4 4 6 6 5 5
10 4 3 2 3 3 2 0 2 2 3 2 1 1 2 2 1 1 4 5 6 3 2 2 2 2 1 1 1 1 1 4 3 2 2 2 2 2 2 5 6 5 5 6 4 4 4 4 5 6 4 3 4 4
5 5 6 5 5 4 1 3 1 2 1 2 3 3 2 3 2 1 5 5 3 2 1 1 2 1 1 2 2 2 3 2 1 1 1 3 2 2 2 1 3 3 1 1 3 4 3 4 4 5 5 5 5 5
5 6 5 5 1 4 5 4 4 3 4 4 4 3 2 2 1 4 5 4 2 2 2 1 1 1 1 0 1 2 2 3 3 3 2 3 2 2 1 0 2 3 3 3 3 3 3 4 4 5 5 5 6 6
7 6 10 8 4 6 7 6 7 8 4 4 3 3 2 2 2 7 4 3 2 2 1 2 2 1 1 1 1 1 2 2 1 1 1 2 2 1 1 1 1 0 4 3 3 4 4 4 5 7 6 6 5 5
7 7 2 1 2 4 2 1 1 3 6 5 4 5 4 4 6 5 2 1 1 1 2 2 2 2 1 2 2 2 2 2 3 3 2 2 1 0 1 2 3 1 1 5 4 4 5 5 5 5 5 3 5 6
1 3 6 5 3 1 4 4 6 7 4 3 6 6 7 7 5 2 1 1 2 0 1 2 4 3 3 3 2 2 2 1 1 1 1 2 1 0 1 2 2 4 1 3 4 4 3 4 4 5 5 5 4 4
2 2 3 4 3 4 5 6 4 2 2 4 4 4 4 2 0 1 1 1 1 1 1 1 1 2 2 2 2 2 1 2 3 3 2 1 1 2 1 1 1 1 1 2 4 5 6 4 4 4 4 3 1 0
2 3 2 4 4 6 2 1 2 1 1 1 1 2 2 1 1 1 2 2 2 1 1 1 1 1 1 1 2 2 1 1 1 1 4 2 3 2 1 1 2 1 2 3 3 3 7 5 4 2 1 0 1 2
1 1 1 0 1 1 1 1 1 1 1 1 1 1 2 3 2 1 0 0 1 2 2 1 0 0 2 2 2 3 2 2 4 2 2 1 0 2 1 2 1 2 2 3 3 2 2 1 1 1 3 5 6 5
1 3 3 3 1 1 1 1 1 1 1 0 0 1 2 2 3 1 1 1 2 2 3 2 2 2 3 1 0 1 1 1 3 3 5 2 3 2 1 2 2 3 3 3 3 2 2 3 3 4 5 7 7 7
1 0 1 3 2 2 1 2 1 2 1 0 0 1 1 1 3 2 1 2 2 1 2 2 2 1 2 3 2 1 1 2 2 3 5 5 3 3 3 2 3 3 4 3 2 2 4 3 4 5 7 8 9 9
Wind_Direction
18 10 21 19 17 18 24 25 34 25 353 0 302 78 62 61 141 187 154 208 200 102 12 344 336 207 168 172 157 128 123 163 92 177 180 183 209 202 188 218 182 184 188 202 220 233 252 195 105 202 221 236 294 263
17 10 16 19 19 17 18 20 18 11 9 3 301 285 295 316 34 58 14 47 13 77 76 259 3 17 31 48 125 204 94 149 158 164 219 131 187 177 204 231 161 213 209 215 207 221 154 193 221 171 155 200 240 269
13 15 9 14 14 15 10 12 17 10 355 326 281 304 293 279 11 69 112 340 48 87 164 40 354 16 39 59 55 150 197 255 216 23 156 153 227 164 197 231 240 230 211 234 239 223 221 220 237 222 194 192 168 167
7 13 8 7 11 11 10 7 5 3 4 331 255 228 239 176 148 112 50 355 60 77 27 320 19 353 19 20 42 35 336 60 90 218 173 196 219 193 239 253 220 242 160 200 249 269 297 252 236 209 189 150 139 128
359 5 10 4 7 10 7 4 2 6 15 13 315 219 219 140 96 77 68 23 350 137 213 309 342 325 351 349 323 285 257 252 253 186 212 219 188 166 43 308 242 188 201 211 238 261 232 271 281 165 171 173 164 140
353 358 4 5 2 7 9 6 359 351 28 33 39 50 159 143 136 127 37 8 359 333 149 240 63 156 351 269 233 226 220 224 230 212 217 233 347 208 222 240 234 210 251 7 258 111 94 79 108 150 148 154 157 121
349 350 358 3 359 1 5 5 2 348 35 48 50 63 83 94 75 95 119 338 328 289 208 255 222 169 348 271 226 205 202 201 241 228 228 218 225 221 231 239 168 210 179 156 125 135 159 199 177 137 127 122 115 101
344 347 349 359 358 357 1 5 7 11 102 100 85 74 76 87 107 62 13 360 322 101 52 227 224 164 358 189 190 251 185 177 191 252 205 225 221 208 253 255 155 159 151 159 152 47 23 111 117 116 130 136 114 116
340 342 343 350 355 352 358 4 2 5 119 105 97 103 62 34 65 343 346 37 44 41 234 177 227 219 353 205 243 192 219 201 92 234 200 239 202 223 235 183 180 174 184 154 112 92 111 130 138 148 149 145 142 153
333 337 339 345 349 346 350 356 357 350 339 355 45 51 360 256 300 7 5 25 20 356 21 205 158 238 330 357 63 302 28 233 231 135 303 228 258 258 189 43 117 151 141 145 128 150 163 180 181 170 173 154 143 152
327 326 333 347 346 345 346 350 347 334 58 41 43 130 255 321 55 31 29 58 339 294 21 56 266 177 6 230 149 33 68 346 260 101 269 232 263 210 154 174 231 165 166 168 0 327 183 180 167 161 160 154 149 153
324 325 333 341 338 337 347 351 351 29 149 166 137 90 28 39 42 71 265 334 210 241 180 181 152 309 20 348 162 112 216 153 247 353 250 262 249 129 161 171 176 150 146 155 269 204 185 153 155 151 144 145 138 121
336 338 331 341 330 334 342 356 5 83 85 33 48 53 57 310 40 162 230 255 261 179 187 170 161 7 94 81 79 192 191 218 137 234 236 238 217 181 173 146 140 112 110 131 133 94 94 102 83 105 127 101 119 123
325 328 338 326 315 346 342 357 10 56 57 101 127 271 174 241 241 194 193 195 106 120 151 145 111 183 69 112 32 168 78 288 249 249 233 234 208 162 157 150 131 174 172 147 132 134 132 137 127 116 126 143 143 155
301 312 318 247 314 344 353 78 80 56 111 187 106 235 216 260 220 352 342 271 202 141 136 114 85 209 94 114 16 99 30 252 221 235 246 284 187 148 157 165 161 158 162 162 148 142 138 134 142 133 150 151 141 131
286 341 243 227 329 360 109 89 45 92 61 143 183 226 125 329 228 209 187 244 173 147 132 77 117 84 233 139 143 213 142 228 245 224 249 173 165 161 154 161 170 151 156 151 153 158 147 153 162 147 141 163 166 164
261 217 202 261 5 97 88 82 68 54 214 201 235 100 302 312 298 76 151 170 157 159 187 142 164 208 108 72 246 196 212 221 224 243 224 218 190 181 164 152 158 157 160 163 157 165 153 137 128 137 186 200 190 197
232 231 202 236 95 99 35 43 92 133 245 179 233 107 182 258 106 176 204 184 160 192 165 212 126 164 193 192 234 228 226 236 226 242 226 202 209 193 171 173 171 170 168 164 161 152 146 155 174 207 202 168 168 197
213 236 211 161 137 96 34 343 32 249 247 60 121 120 137 79 222 316 303 161 16 337 186 149 204 208 219 210 211 206 209 205 181 182 201 203 211 176 175 139 143 158 167 163 177 182 185 187 189 187 189 171 207 197
269 115 132 125 114 109 314 289 274 181 258 95 127 187 45 44 85 103 137 155 170 167 238 217 222 221 206 221 194 179 177 149 140 143 186 199 187 177 184 172 179 163 155 149 175 158 167 187 209 200 193 199 202 211
120 163 139 110 66 80 86 205 300 38 131 214 349 293 75 113 161 170 167 168 191 220 240 225 236 249 93 36 324 164 154 170 183 201 176 154 170 179 158 174 159 160 170 186 191 196 201 208 182 178 189 209 218 224
185 136 97 334 109 109 64 25 47 109 176 71 195 176 215 238 206 200 129 199 231 239 216 236 273 274 181 240 236 247 23 126 97 101 88 112 132 162 189 184 172 191 199 200 197 197 202 199 175 175 194 211 193 208
113 115 97 126 130 176 231 181 178 171 239 172 118 316 236 233 222 151 245 233 258 255 316 336 58 40 90 125 139 108 227 162 163 169 150 124 88 117 145 170 191 185 201 216 203 196 195 170 179 192 191 183 188 206
108 157 184 202 193 185 96 183 185 169 157 219 204 252 219 179 142 153 255 250 248 286 311 250 187 124 119 185 207 197 183 186 138 153 179 165 186 193 201 164 188 216 195 50 175 185 183 192 172 182 183 192 204 220
178 206 177 192 55 132 186 172 183 190 245 180 201 222 171 155 210 230 238 269 279 287 294 319 215 307 296 1 98 113 121 175 195 209 160 203 127 117 98 350 257 239 167 176 178 179 187 178 187 189 194 201 209 215
213 191 187 191 157 182 184 173 196 203 182 182 205 104 165 157 249 245 230 239 251 261 276 208 186 171 279 324 74 133 126 151 164 185 88 207 196 157 167 201 262 257 192 191 150 191 185 183 187 195 214 215 210 221
220 199 151 22 117 115 109 55 111 170 181 186 160 162 172 223 245 252 286 232 254 258 263 299 270 297 69 127 95 66 69 71 48 71 79 57 40 279 151 174 201 284 181 188 188 177 183 185 190 199 217 217 218 216
206 165 182 168 183 209 154 178 183 198 177 146 133 188 194 200 237 231 209 151 188 200 79 45 29 26 59 61 61 122 105 110 90 109 122 94 82 21 259 250 271 300 170 188 192 187 187 182 191 200 207 223 233 211
159 159 138 142 148 195 211 200 209 122 67 168 183 209 229 248 199 129 140 140 154 211 137 117 64 59 77 70 56 46 104 163 120 96 109 118 4 23 19 222 198 110 92 120 180 166 184 177 189 199 204 228 278 329
192 183 182 179 194 203 124 356 125 123 33 37 338 290 270 249 77 108 138 150 173 177 117 90 89 228 189 151 108 79 67 172 38 121 135 166 219 278 303 162 132 103 88 98 101 60 78 76 80 65 93 304 274 277
48 181 208 92 161 66 57 91 82 72 52 56 17 281 301 321 315 97 211 158 139 140 167 173 132 220 146 132 120 107 69 199 205 189 122 116 283 284 253 180 138 120 103 109 112 106 120 134 202 235 278 274 276 265
115 170 156 174 202 239 250 183 104 95 60 200 125 327 316 310 276 183 104 119 122 179 208 163 174 247 203 135 68 333 31 136 181 190 184 206 241 246 177 136 129 122 119 125 137 159 183 206 237 250 268 276 279 277
55 52 99 107 109 173 211 159 115 131 83 77 341 329 277 269 259 315 37 66 125 206 196 220 220 221 187 173 172 192 196 209 230 205 189 203 194 157 147 150 158 153 144 156 191 206 226 230 262 260 267 268 273 276